| time (UTC) | temp C | wind direction | speed KPH | gust KPH | rain 1hr cm | rain 24hr cm | rain mn cm | humidity % | barometer mb |
| 20260507160516 | 15 | 287 | 0.0 | 9.7 | 0.00 | 0.00 | 0.00 | 40 | 1011.5 |
| 20260507160023 | 15 | 296 | 0.0 | 9.7 | 0.00 | 0.00 | 0.00 | 41 | 1011.6 |
| 20260507155514 | 15 | 290 | 0.0 | 9.7 | 0.00 | 0.00 | 0.00 | 43 | 1011.7 |
| 20260507155010 | 15 | 44 | 1.6 | 11.3 | 0.00 | 0.00 | 0.00 | 43 | 1011.6 |
| 20260507154500 | 15 | 282 | 0.0 | 11.3 | 0.00 | 0.00 | 0.00 | 43 | 1011.6 |
| 20260507154005 | 15 | 252 | 0.0 | 11.3 | 0.00 | 0.00 | 0.00 | 44 | 1011.6 |
| 20260507152827 | 14 | 343 | 0.0 | 11.3 | 0.00 | 0.00 | 0.00 | 44 | 1011.7 |
| 20260507152333 | 14 | 340 | 0.0 | 11.3 | 0.00 | 0.00 | 0.00 | 44 | 1011.8 |
| 20260507151827 | 14 | 51 | 0.0 | 9.7 | 0.00 | 0.00 | 0.00 | 44 | 1012.0 |
| 20260507151318 | 13 | 302 | 0.0 | 9.7 | 0.00 | 0.00 | 0.00 | 45 | 1012.2 |
| 20260507150804 | 14 | 275 | 1.6 | 11.3 | 0.00 | 0.03 | 0.00 | 43 | 1012.3 |
| 20260507150246 | 14 | 265 | 1.6 | 11.3 | 0.00 | 0.03 | 0.00 | 43 | 1012.4 |
| 20260507145753 | 14 | 327 | 1.6 | 14.5 | 0.00 | 0.03 | 0.00 | 43 | 1012.5 |
| 20260507145253 | 14 | 336 | 1.6 | 14.5 | 0.00 | 0.03 | 0.00 | 41 | 1012.6 |
| 20260507144758 | 14 | 293 | 1.6 | 14.5 | 0.00 | 0.03 | 0.00 | 45 | 1012.5 |
| 20260507144244 | 13 | 310 | 1.6 | 14.5 | 0.00 | 0.03 | 0.00 | 47 | 1012.5 |
| 20260507143744 | 13 | 38 | 1.6 | 12.9 | 0.00 | 0.03 | 0.00 | 45 | 1012.5 |
| 20260507143224 | 13 | 257 | 0.0 | 12.9 | 0.00 | 0.03 | 0.00 | 45 | 1012.5 |
| 20260507142716 | 13 | 351 | 1.6 | 12.9 | 0.00 | 0.03 | 0.00 | 49 | 1012.6 |
| 20260507142219 | 13 | 26 | 1.6 | 12.9 | 0.00 | 0.03 | 0.00 | 47 | 1012.7 |
| 20260507141719 | 13 | 262 | 0.0 | 9.7 | 0.00 | 0.03 | 0.00 | 46 | 1012.7 |
| 20260507141225 | 13 | 20 | 0.0 | 1.6 | 0.00 | 0.03 | 0.00 | 50 | 1012.8 |
| 20260507140731 | 12 | 348 | 0.0 | 8.0 | 0.00 | 0.03 | 0.00 | 49 | 1012.9 |
| 20260507140212 | 12 | 344 | 0.0 | 8.0 | 0.00 | 0.03 | 0.00 | 51 | 1013.0 |
| 20260507135701 | 12 | 270 | 0.0 | 0.0 | 0.00 | 0.03 | 0.00 | 51 | 1013.1 |
| 20260507135150 | 12 | 313 | 0.0 | 11.3 | 0.00 | 0.03 | 0.00 | 52 | 1013.2 |
| 20260507134642 | 12 | 310 | 0.0 | 3.2 | 0.00 | 0.03 | 0.00 | 52 | 1013.2 |
| 20260507134148 | 12 | 311 | 0.0 | 3.2 | 0.00 | 0.03 | 0.00 | 51 | 1013.2 |
| 20260507133649 | 12 | 91 | 0.0 | 3.2 | 0.00 | 0.03 | 0.00 | 51 | 1013.3 |
| 20260507133153 | 11 | 279 | 0.0 | 3.2 | 0.00 | 0.03 | 0.00 | 53 | 1013.4 |
| 20260507132639 | 11 | 266 | 0.0 | 0.0 | 0.00 | 0.08 | 0.00 | 57 | 1013.3 |
| 20260507132130 | 11 | 258 | 0.0 | 9.7 | 0.00 | 0.08 | 0.00 | 58 | 1013.3 |
| 20260507131610 | 11 | 257 | 0.0 | 9.7 | 0.00 | 0.10 | 0.00 | 58 | 1013.3 |
| 20260507131111 | 11 | 273 | 0.0 | 9.7 | 0.00 | 0.10 | 0.00 | 59 | 1013.3 |
| 20260507125959 | 11 | 324 | 0.0 | 1.6 | 0.00 | 0.10 | 0.00 | 60 | 1013.4 |
| 20260507125452 | 11 | 280 | 0.0 | 1.6 | 0.00 | 0.10 | 0.00 | 62 | 1013.4 |
| 20260507124936 | 11 | 273 | 0.0 | 0.0 | 0.00 | 0.10 | 0.00 | 60 | 1013.3 |
| 20260507124433 | 11 | 276 | 0.0 | 0.0 | 0.00 | 0.10 | 0.00 | 62 | 1013.3 |
| 20260507123317 | 11 | 275 | 0.0 | 0.0 | 0.00 | 0.13 | 0.00 | 64 | 1013.2 |
| 20260507122822 | 11 | 276 | 0.0 | 1.6 | 0.00 | 0.18 | 0.00 | 62 | 1013.3 |
| 20260507122315 | 11 | 265 | 0.0 | 8.0 | 0.00 | 0.18 | 0.00 | 62 | 1013.3 |
| 20260507121811 | 11 | 274 | 0.0 | 8.0 | 0.00 | 0.20 | 0.00 | 65 | 1013.2 |
| 20260507120638 | 10 | 301 | 0.0 | 0.0 | 0.00 | 0.23 | 0.00 | 65 | 1013.1 |
| 20260507120131 | 10 | 306 | 0.0 | 0.0 | 0.00 | 0.28 | 0.00 | 64 | 1013.1 |
| 20260507115635 | 10 | 308 | 0.0 | 0.0 | 0.00 | 0.28 | 0.00 | 66 | 1013.0 |
| 20260507115129 | 10 | 308 | 0.0 | 0.0 | 0.00 | 0.28 | 0.00 | 66 | 1013.0 |
| 20260507114635 | 10 | 310 | 0.0 | 0.0 | 0.00 | 0.33 | 0.00 | 66 | 1013.0 |
| 20260507114131 | 10 | 309 | 0.0 | 0.0 | 0.00 | 0.33 | 0.00 | 66 | 1012.9 |
| 20260507113640 | 10 | 309 | 0.0 | 0.0 | 0.00 | 0.33 | 0.00 | 65 | 1013.0 |
| 20260507113143 | 10 | 309 | 0.0 | 0.0 | 0.00 | 0.38 | 0.00 | 64 | 1013.0 |
| 20260507112640 | 10 | 309 | 0.0 | 0.0 | 0.00 | 0.41 | 0.00 | 64 | 1013.1 |
| 20260507112150 | 10 | 309 | 0.0 | 0.0 | 0.00 | 0.43 | 0.00 | 63 | 1013.1 |
| 20260507111650 | 10 | 309 | 0.0 | 0.0 | 0.00 | 0.43 | 0.00 | 64 | 1013.1 |
| 20260507111148 | 10 | 309 | 0.0 | 0.0 | 0.00 | 0.46 | 0.00 | 65 | 1013.0 |
| 20260507110634 | 10 | 309 | 0.0 | 0.0 | 0.00 | 0.46 | 0.00 | 62 | 1012.9 |
| 20260507110122 | 10 | 309 | 0.0 | 0.0 | 0.00 | 0.46 | 0.00 | 61 | 1012.8 |
| 20260507105612 | 10 | 309 | 0.0 | 0.0 | 0.00 | 0.46 | 0.00 | 61 | 1012.8 |
| 20260507105058 | 10 | 309 | 0.0 | 0.0 | 0.00 | 0.46 | 0.00 | 61 | 1012.7 |
| 20260507104540 | 10 | 309 | 0.0 | 0.0 | 0.00 | 0.46 | 0.00 | 61 | 1012.6 |
| 20260507104035 | 10 | 311 | 0.0 | 0.0 | 0.00 | 0.46 | 0.00 | 61 | 1012.4 |
| 20260507102301 | 10 | 348 | 0.0 | 0.0 | 0.00 | 0.46 | 0.00 | 59 | 1012.4 |
| 20260507101144 | 10 | 258 | 0.0 | 3.2 | 0.00 | 0.46 | 0.00 | 60 | 1012.1 |
| 20260507100654 | 10 | 347 | 0.0 | 0.0 | 0.00 | 0.46 | 0.00 | 60 | 1012.0 |
| 20260507100159 | 11 | 351 | 0.0 | 3.2 | 0.00 | 0.46 | 0.00 | 61 | 1011.9 |
| 20260507095643 | 11 | 13 | 0.0 | 3.2 | 0.00 | 0.46 | 0.00 | 63 | 1011.8 |
| 20260507095150 | 11 | 346 | 0.0 | 3.2 | 0.00 | 0.46 | 0.00 | 62 | 1011.7 |
| 20260507094657 | 11 | 273 | 0.0 | 4.8 | 0.00 | 0.46 | 0.00 | 63 | 1011.7 |
| 20260507094150 | 11 | 0 | 0.0 | 4.8 | 0.00 | 0.46 | 0.00 | 64 | 1011.7 |
| 20260507093635 | 11 | 328 | 0.0 | 0.0 | 0.00 | 0.46 | 0.00 | 65 | 1011.8 |
| 20260507093144 | 11 | 306 | 0.0 | 3.2 | 0.00 | 0.46 | 0.00 | 66 | 1011.8 |
| 20260507092630 | 11 | 298 | 0.0 | 0.0 | 0.00 | 0.46 | 0.00 | 67 | 1011.8 |
| 20260507092137 | 11 | 309 | 0.0 | 0.0 | 0.00 | 0.46 | 0.00 | 67 | 1011.8 |
| 20260507091010 | 11 | 309 | 0.0 | 0.0 | 0.00 | 0.46 | 0.00 | 66 | 1011.9 |
| 20260507085832 | 11 | 289 | 0.0 | 8.0 | 0.00 | 0.46 | 0.00 | 66 | 1011.8 |
| 20260507085312 | 11 | 315 | 0.0 | 8.0 | 0.00 | 0.46 | 0.00 | 66 | 1011.8 |
| 20260507084809 | 11 | 18 | 0.0 | 4.8 | 0.00 | 0.46 | 0.00 | 67 | 1011.8 |
| 20260507084311 | 11 | 351 | 0.0 | 4.8 | 0.00 | 0.46 | 0.00 | 67 | 1011.7 |
| 20260507083811 | 11 | 319 | 0.0 | 0.0 | 0.00 | 0.46 | 0.00 | 67 | 1011.6 |
| 20260507083253 | 11 | 277 | 0.0 | 0.0 | 0.00 | 0.46 | 0.00 | 67 | 1011.7 |
| 20260507082129 | 11 | 286 | 0.0 | 4.8 | 0.00 | 0.46 | 0.00 | 69 | 1011.5 |
| 20260507081626 | 11 | 322 | 0.0 | 0.0 | 0.00 | 0.46 | 0.00 | 70 | 1011.5 |
| 20260507081133 | 11 | 273 | 0.0 | 0.0 | 0.00 | 0.46 | 0.00 | 71 | 1011.4 |
| 20260507080630 | 11 | 273 | 0.0 | 1.6 | 0.00 | 0.46 | 0.00 | 72 | 1011.3 |
| 20260507080119 | 11 | 293 | 0.0 | 1.6 | 0.00 | 0.46 | 0.00 | 72 | 1011.2 |
| 20260507075601 | 11 | 292 | 0.0 | 0.0 | 0.00 | 0.46 | 0.00 | 72 | 1010.9 |
| 20260507075104 | 11 | 13 | 0.0 | 0.0 | 0.00 | 0.46 | 0.00 | 72 | 1011.0 |
| 20260507074546 | 11 | 0 | 0.0 | 4.8 | 0.00 | 0.46 | 0.00 | 72 | 1011.1 |
| 20260507074034 | 11 | 315 | 0.0 | 0.0 | 0.00 | 0.46 | 0.00 | 72 | 1011.0 |
| 20260507073541 | 11 | 15 | 0.0 | 1.6 | 0.00 | 0.46 | 0.00 | 72 | 1011.0 |
| 20260507073044 | 11 | 11 | 0.0 | 0.0 | 0.00 | 0.46 | 0.00 | 73 | 1011.0 |
| 20260507072539 | 11 | 9 | 0.0 | 0.0 | 0.00 | 0.46 | 0.00 | 72 | 1011.0 |
| 20260507072047 | 11 | 13 | 0.0 | 1.6 | 0.00 | 0.46 | 0.00 | 72 | 1011.0 |
| 20260507071532 | 11 | 47 | 0.0 | 3.2 | 0.00 | 0.46 | 0.00 | 72 | 1011.0 |
| 20260507071023 | 12 | 27 | 1.6 | 8.0 | 0.00 | 0.46 | 0.00 | 72 | 1011.1 |
| 20260507070525 | 12 | 348 | 0.0 | 8.0 | 0.00 | 0.46 | 0.00 | 72 | 1011.2 |
| 20260507065400 | 12 | 43 | 0.0 | 11.3 | 0.00 | 0.46 | 0.00 | 73 | 1011.3 |
| 20260507064843 | 12 | 44 | 0.0 | 6.4 | 0.00 | 0.46 | 0.00 | 74 | 1011.4 |
| 20260507064348 | 12 | 36 | 0.0 | 3.2 | 0.00 | 0.46 | 0.00 | 75 | 1011.5 |
| 20260507063852 | 12 | 36 | 0.0 | 1.6 | 0.00 | 0.46 | 0.00 | 75 | 1011.5 |
| 20260507063352 | 12 | 293 | 0.0 | 0.0 | 0.00 | 0.46 | 0.00 | 75 | 1011.4 |
| 20260507062226 | 12 | 267 | 0.0 | 0.0 | 0.00 | 0.46 | 0.00 | 75 | 1011.5 |
| 20260507061719 | 12 | 32 | 0.0 | 4.8 | 0.00 | 0.46 | 0.00 | 75 | 1011.5 |
| 20260507061207 | 12 | 314 | 0.0 | 0.0 | 0.00 | 0.46 | 0.00 | 75 | 1011.5 |
| 20260507060029 | 12 | 24 | 0.0 | 0.0 | 0.00 | 0.46 | 0.00 | 76 | 1011.4 |
| 20260507055534 | 12 | 321 | 0.0 | 0.0 | 0.00 | 0.46 | 0.00 | 76 | 1011.3 |
| 20260507055043 | 12 | 319 | 0.0 | 0.0 | 0.00 | 0.46 | 0.00 | 76 | 1011.3 |
| 20260507054551 | 12 | 47 | 0.0 | 1.6 | 0.00 | 0.46 | 0.00 | 76 | 1011.3 |
| 20260507054041 | 12 | 31 | 0.0 | 0.0 | 0.00 | 0.46 | 0.00 | 76 | 1011.2 |
| 20260507053527 | 12 | 29 | 0.0 | 0.0 | 0.00 | 0.46 | 0.00 | 76 | 1011.2 |
| 20260507053020 | 12 | 28 | 0.0 | 0.0 | 0.00 | 0.46 | 0.00 | 76 | 1011.3 |
| 20260507052516 | 12 | 22 | 0.0 | 0.0 | 0.00 | 0.46 | 0.00 | 77 | 1011.3 |
| 20260507052025 | 12 | 23 | 0.0 | 0.0 | 0.00 | 0.46 | 0.00 | 76 | 1011.2 |
| 20260507051509 | 12 | 24 | 0.0 | 0.0 | 0.00 | 0.46 | 0.00 | 76 | 1011.2 |
| 20260507050335 | 12 | 12 | 0.0 | 3.2 | 0.00 | 0.46 | 0.00 | 76 | 1011.1 |
| 20260507045820 | 12 | 311 | 0.0 | 3.2 | 0.00 | 0.46 | 0.00 | 76 | 1011.2 |
| 20260507045319 | 12 | 15 | 0.0 | 0.0 | 0.00 | 0.46 | 0.00 | 77 | 1011.2 |
| 20260507042228 | 12 | 11 | 0.0 | 3.2 | 0.00 | 0.46 | 0.00 | 78 | 1011.1 |
| 20260507041725 | 12 | 347 | 0.0 | 1.6 | 0.00 | 0.46 | 0.00 | 79 | 1011.1 |
| 20260507041223 | 12 | 327 | 0.0 | 4.8 | 0.00 | 0.46 | 0.00 | 79 | 1011.3 |
| 20260507040723 | 13 | 0 | 0.0 | 0.0 | 0.00 | 0.46 | 0.00 | 79 | 1011.2 |
| 20260507040215 | 13 | 28 | 0.0 | 3.2 | 0.00 | 0.46 | 0.00 | 80 | 1011.0 |
| 20260507035036 | 13 | 296 | 0.0 | 6.4 | 0.00 | 0.46 | 0.46 | 79 | 1010.9 |
| 20260507034539 | 13 | 16 | 0.0 | 12.9 | 0.00 | 0.46 | 0.46 | 79 | 1010.9 |
| 20260507034043 | 13 | 54 | 0.0 | 12.9 | 0.00 | 0.46 | 0.46 | 79 | 1011.0 |
| 20260507032908 | 13 | 320 | 0.0 | 11.3 | 0.00 | 0.46 | 0.46 | 80 | 1010.9 |
| 20260507032355 | 13 | 307 | 0.0 | 11.3 | 0.00 | 0.46 | 0.46 | 80 | 1011.2 |
| 20260507031851 | 13 | 300 | 0.0 | 3.2 | 0.00 | 0.46 | 0.46 | 79 | 1010.9 |
| 20260507031356 | 13 | 37 | 0.0 | 9.7 | 0.00 | 0.46 | 0.46 | 79 | 1010.8 |
| 20260507030851 | 13 | 277 | 0.0 | 6.4 | 0.00 | 0.46 | 0.46 | 79 | 1010.7 |
| 20260507030339 | 13 | 284 | 0.0 | 3.2 | 0.00 | 0.46 | 0.46 | 79 | 1010.7 |
| 20260507025227 | 13 | 329 | 0.0 | 1.6 | 0.00 | 0.46 | 0.46 | 78 | 1010.8 |
| 20260507024723 | 13 | 57 | 0.0 | 0.0 | 0.00 | 0.46 | 0.46 | 78 | 1010.6 |
| 20260507023556 | 13 | 283 | 0.0 | 14.5 | 0.00 | 0.46 | 0.46 | 78 | 1010.3 |
| 20260507023103 | 14 | 57 | 0.0 | 14.5 | 0.00 | 0.46 | 0.46 | 78 | 1010.3 |
| 20260507022605 | 14 | 24 | 0.0 | 14.5 | 0.00 | 0.46 | 0.46 | 78 | 1010.2 |
| 20260507021429 | 14 | 265 | 1.6 | 14.5 | 0.00 | 0.46 | 0.46 | 78 | 1010.3 |
| 20260507020923 | 14 | 34 | 0.0 | 9.7 | 0.00 | 0.46 | 0.46 | 78 | 1010.0 |
| 20260507020427 | 15 | 279 | 0.0 | 9.7 | 0.00 | 0.46 | 0.46 | 78 | 1010.2 |
| 20260507015927 | 15 | 348 | 0.0 | 3.2 | 0.00 | 0.46 | 0.46 | 78 | 1010.0 |
| 20260507015411 | 15 | 355 | 0.0 | 4.8 | 0.00 | 0.46 | 0.46 | 78 | 1010.0 |
| 20260507014903 | 15 | 287 | 0.0 | 0.0 | 0.00 | 0.46 | 0.46 | 78 | 1010.1 |
| 20260507014412 | 15 | 247 | 0.0 | 9.7 | 0.00 | 0.46 | 0.46 | 78 | 1010.1 |
| 20260507013858 | 15 | 260 | 0.0 | 9.7 | 0.00 | 0.46 | 0.46 | 78 | 1010.1 |
| 20260507013403 | 15 | 272 | 0.0 | 16.1 | 0.00 | 0.46 | 0.46 | 79 | 1009.8 |
| 20260507012848 | 15 | 59 | 1.6 | 16.1 | 0.00 | 0.46 | 0.46 | 79 | 1009.7 |
| 20260507012343 | 15 | 315 | 3.2 | 19.3 | 0.00 | 0.46 | 0.46 | 78 | 1009.8 |
| 20260507011826 | 15 | 300 | 3.2 | 19.3 | 0.00 | 0.46 | 0.46 | 78 | 1009.7 |
| 20260507011320 | 15 | 305 | 3.2 | 19.3 | 0.00 | 0.46 | 0.46 | 77 | 1009.4 |
| 20260507010827 | 15 | 60 | 3.2 | 19.3 | 0.00 | 0.46 | 0.46 | 77 | 1009.7 |
| 20260507010332 | 15 | 266 | 1.6 | 14.5 | 0.00 | 0.46 | 0.46 | 78 | 1009.9 |
| 20260507005815 | 16 | 321 | 1.6 | 14.5 | 0.00 | 0.46 | 0.46 | 79 | 1010.1 |
| 20260507005317 | 16 | 304 | 1.6 | 14.5 | 0.00 | 0.46 | 0.46 | 79 | 1010.3 |
| 20260507004812 | 16 | 275 | 0.0 | 9.7 | 0.00 | 0.46 | 0.46 | 81 | 1010.2 |
| 20260507004322 | 16 | 329 | 0.0 | 9.7 | 0.00 | 0.46 | 0.46 | 80 | 1009.9 |
| 20260507003218 | 16 | 9 | 0.0 | 0.0 | 0.00 | 0.46 | 0.46 | 80 | 1009.7 |
| 20260507002705 | 16 | 284 | 0.0 | 0.0 | 0.00 | 0.46 | 0.46 | 78 | 1010.0 |
| 20260507002215 | 16 | 259 | 0.0 | 11.3 | 0.00 | 0.46 | 0.46 | 79 | 1010.0 |
| 20260507001700 | 16 | 267 | 0.0 | 11.3 | 0.00 | 0.46 | 0.46 | 81 | 1009.8 |
| 20260507000535 | 17 | 265 | 0.0 | 9.7 | 0.00 | 0.46 | 0.46 | 84 | 1009.7 |
| 20260507000045 | 17 | 266 | 0.0 | 9.7 | 0.00 | 0.46 | 0.46 | 84 | 1009.6 |
| 20260506235542 | 17 | 293 | 0.0 | 9.7 | 0.00 | 0.46 | 0.46 | 85 | 1009.4 |
| 20260506235039 | 17 | 284 | 0.0 | 8.0 | 0.00 | 0.46 | 0.46 | 85 | 1009.2 |
| 20260506234548 | 17 | 274 | 0.0 | 9.7 | 0.00 | 0.46 | 0.46 | 85 | 1009.0 |
| 20260506234029 | 17 | 267 | 0.0 | 9.7 | 0.00 | 0.46 | 0.46 | 86 | 1009.2 |
| 20260506232905 | 17 | 249 | 0.0 | 4.8 | 0.00 | 0.46 | 0.46 | 86 | 1008.4 |
| 20260506232408 | 17 | 272 | 0.0 | 1.6 | 0.00 | 0.46 | 0.46 | 86 | 1008.5 |
| 20260506231849 | 17 | 267 | 0.0 | 4.8 | 0.00 | 0.46 | 0.46 | 85 | 1008.4 |
| 20260506230730 | 17 | 286 | 0.0 | 4.8 | 0.00 | 0.46 | 0.46 | 85 | 1008.3 |
| 20260506230234 | 18 | 279 | 0.0 | 4.8 | 0.00 | 0.46 | 0.46 | 86 | 1008.2 |
| 20260506224430 | 18 | 292 | 0.0 | 0.0 | 0.00 | 0.46 | 0.46 | 86 | 1008.2 |
| 20260506223926 | 18 | 289 | 0.0 | 0.0 | 0.00 | 0.46 | 0.46 | 87 | 1008.3 |
| 20260506223426 | 18 | 289 | 0.0 | 0.0 | 0.00 | 0.46 | 0.46 | 87 | 1008.2 |
| 20260506222914 | 18 | 288 | 0.0 | 1.6 | 0.00 | 0.46 | 0.46 | 86 | 1008.2 |
| 20260506222403 | 18 | 284 | 0.0 | 1.6 | 0.00 | 0.46 | 0.46 | 86 | 1008.2 |
| 20260506221901 | 18 | 279 | 0.0 | 0.0 | 0.00 | 0.46 | 0.46 | 86 | 1008.1 |
| 20260506221356 | 18 | 271 | 0.0 | 1.6 | 0.00 | 0.46 | 0.46 | 85 | 1008.2 |
| 20260506220905 | 18 | 238 | 0.0 | 0.0 | 0.00 | 0.46 | 0.46 | 85 | 1008.2 |
| 20260506220345 | 18 | 237 | 0.0 | 0.0 | 0.00 | 0.46 | 0.46 | 86 | 1008.0 |
| 20260506215845 | 18 | 234 | 0.0 | 0.0 | 0.00 | 0.46 | 0.46 | 86 | 1007.8 |
| 20260506215346 | 18 | 234 | 0.0 | 1.6 | 0.00 | 0.46 | 0.46 | 86 | 1007.8 |
| 20260506214828 | 18 | 234 | 0.0 | 0.0 | 0.00 | 0.46 | 0.46 | 86 | 1007.9 |
| 20260506214311 | 18 | 232 | 0.0 | 0.0 | 0.00 | 0.46 | 0.46 | 86 | 1008.0 |
| 20260506213805 | 18 | 233 | 0.0 | 0.0 | 0.00 | 0.46 | 0.46 | 86 | 1007.9 |
| 20260506213256 | 18 | 233 | 0.0 | 0.0 | 0.00 | 0.46 | 0.46 | 87 | 1007.9 |
| 20260506211446 | 18 | 232 | 0.0 | 0.0 | 0.00 | 0.46 | 0.46 | 88 | 1007.7 |
| 20260506210335 | 18 | 232 | 0.0 | 0.0 | 0.00 | 0.46 | 0.46 | 88 | 1007.5 |
| 20260506205844 | 18 | 232 | 0.0 | 0.0 | 0.00 | 0.46 | 0.46 | 88 | 1007.3 |
| 20260506205333 | 18 | 233 | 0.0 | 0.0 | 0.00 | 0.46 | 0.46 | 88 | 1007.3 |
| 20260506204829 | 18 | 233 | 0.0 | 0.0 | 0.00 | 0.46 | 0.46 | 89 | 1007.4 |
| 20260506203700 | 17 | 233 | 0.0 | 0.0 | 0.00 | 0.46 | 0.46 | 89 | 1007.2 |
| 20260506203150 | 17 | 233 | 0.0 | 0.0 | 0.00 | 0.46 | 0.46 | 89 | 1007.3 |
| 20260506202648 | 17 | 233 | 0.0 | 0.0 | 0.00 | 0.46 | 0.46 | 88 | 1007.3 |
| 20260506202145 | 17 | 232 | 0.0 | 0.0 | 0.00 | 0.46 | 0.46 | 88 | 1007.3 |
| 20260506201629 | 17 | 232 | 0.0 | 0.0 | 0.00 | 0.46 | 0.46 | 88 | 1007.3 |
| 20260506201125 | 17 | 232 | 0.0 | 0.0 | 0.00 | 0.46 | 0.46 | 88 | 1007.3 |
| 20260506200623 | 18 | 232 | 0.0 | 0.0 | 0.00 | 0.46 | 0.46 | 88 | 1007.4 |
| 20260506200106 | 17 | 232 | 0.0 | 0.0 | 0.00 | 0.46 | 0.46 | 87 | 1007.3 |
| 20260506195604 | 18 | 232 | 0.0 | 0.0 | 0.00 | 0.46 | 0.46 | 87 | 1007.4 |
| 20260506195059 | 18 | 233 | 0.0 | 0.0 | 0.00 | 0.46 | 0.46 | 87 | 1007.4 |
| 20260506194607 | 18 | 233 | 0.0 | 0.0 | 0.00 | 0.46 | 0.46 | 87 | 1007.4 |
| 20260506194107 | 18 | 233 | 0.0 | 0.0 | 0.00 | 0.46 | 0.46 | 87 | 1007.3 |
| 20260506193549 | 18 | 233 | 0.0 | 0.0 | 0.00 | 0.46 | 0.46 | 86 | 1007.4 |
| 20260506192424 | 18 | 232 | 0.0 | 0.0 | 0.00 | 0.46 | 0.46 | 86 | 1007.6 |
| 20260506191913 | 18 | 233 | 0.0 | 0.0 | 0.00 | 0.46 | 0.46 | 86 | 1007.6 |
| 20260506190752 | 18 | 235 | 0.0 | 0.0 | 0.00 | 0.46 | 0.46 | 85 | 1007.5 |
| 20260506190239 | 18 | 235 | 0.0 | 1.6 | 0.00 | 0.46 | 0.46 | 85 | 1007.6 |
| 20260506185733 | 18 | 225 | 0.0 | 0.0 | 0.00 | 0.46 | 0.46 | 85 | 1007.5 |
| 20260506185231 | 18 | 234 | 0.0 | 0.0 | 0.00 | 0.46 | 0.46 | 85 | 1007.6 |
| 20260506184719 | 18 | 233 | 0.0 | 1.6 | 0.00 | 0.46 | 0.46 | 85 | 1007.6 |
| 20260506184204 | 18 | 236 | 0.0 | 6.4 | 0.00 | 0.46 | 0.46 | 84 | 1007.6 |
| 20260506183704 | 18 | 249 | 0.0 | 6.4 | 0.00 | 0.46 | 0.46 | 85 | 1007.6 |
| 20260506182536 | 17 | 245 | 0.0 | 0.0 | 0.00 | 0.46 | 0.46 | 86 | 1007.6 |
| 20260506180733 | 17 | 238 | 0.0 | 1.6 | 0.00 | 0.46 | 0.46 | 87 | 1007.7 |
| 20260506180219 | 17 | 157 | 0.0 | 6.4 | 0.00 | 0.46 | 0.46 | 87 | 1007.8 |
| 20260506175057 | 17 | 219 | 0.0 | 12.9 | 0.00 | 0.46 | 0.46 | 85 | 1007.8 |
| 20260506174552 | 17 | 223 | 0.0 | 12.9 | 0.00 | 0.46 | 0.46 | 84 | 1007.9 |
| 20260506174058 | 17 | 178 | 0.0 | 0.0 | 0.00 | 0.46 | 0.46 | 84 | 1007.8 |
| 20260506172942 | 17 | 207 | 0.0 | 6.4 | 0.00 | 0.46 | 0.46 | 85 | 1007.7 |
| 20260506172423 | 17 | 244 | 0.0 | 6.4 | 0.00 | 0.46 | 0.46 | 84 | 1007.7 |
| 20260506171914 | 17 | 225 | 0.0 | 6.4 | 0.00 | 0.46 | 0.46 | 85 | 1007.7 |
| 20260506171359 | 17 | 205 | 0.0 | 6.4 | 0.00 | 0.46 | 0.46 | 85 | 1007.7 |
| 20260506170845 | 17 | 138 | 0.0 | 1.6 | 0.00 | 0.46 | 0.46 | 86 | 1007.7 |
| 20260506170354 | 17 | 181 | 0.0 | 16.1 | 0.00 | 0.46 | 0.46 | 87 | 1007.7 |
| 20260506165905 | 17 | 229 | 0.0 | 16.1 | 0.00 | 0.46 | 0.46 | 88 | 1007.8 |
| 20260506165401 | 17 | 228 | 0.0 | 16.1 | 0.00 | 0.46 | 0.46 | 88 | 1007.8 |
| 20260506164904 | 17 | 217 | 0.0 | 14.5 | 0.00 | 0.46 | 0.46 | 88 | 1007.8 |
| 20260506164345 | 17 | 232 | 0.0 | 9.7 | 0.00 | 0.46 | 0.46 | 89 | 1007.8 |
| 20260506163829 | 17 | 221 | 0.0 | 6.4 | 0.00 | 0.46 | 0.46 | 89 | 1007.8 |
| 20260506163323 | 16 | 173 | 0.0 | 0.0 | 0.00 | 0.46 | 0.46 | 90 | 1007.9 |
| 20260506162818 | 16 | 193 | 0.0 | 0.0 | 0.00 | 0.46 | 0.46 | 91 | 1007.9 |
| 20260506162326 | 16 | 142 | 0.0 | 1.6 | 0.00 | 0.46 | 0.46 | 91 | 1008.0 |
| 20260506161820 | 16 | 244 | 0.0 | 0.0 | 0.00 | 0.46 | 0.46 | 91 | 1008.0 |
| 20260506161304 | 16 | 194 | 0.0 | 6.4 | 0.00 | 0.46 | 0.46 | 91 | 1007.9 |